Погода в Новогупаловке

Украина / Запорожская область     48°01′25″N   35°25′04″E
темп.,
°C
ветер,
м/с
пор.,
м/с
влажн.,
%
обл.,
%
осадки,
мм/ч
давл.,
гПа
погр.,
м
15 мая, сб
сб1500:00+14юз33740 0.0 101146
03:00+12юз228479 0.0 101215
06:00+13ююз33851 0.0 101268
09:00+18ююз45590 0.0 1013543
12:00+22юз564767 0.0 10141441
15:00+23ююз56445 0.0 10132002
18:00+23ююз34485 0.0 10131844
21:00+17всв01592 0.0 101311
16 мая, вс
вс1600:00+15юв22700 0.0 101311
03:00+14всв2274100 0.0 101314
06:00+14всв34785 0.0 101368
09:00+20всв5756100 0.0 1012478
12:00+24всв5647100 0.0 10111235
15:00+26св564483 0.0 10091647
18:00+25св585783 0.0 1007798
21:00+20св5118397 0.7 1006227
17 мая, пн
пн1700:00+17св4883100 0.0 1005144
03:00+15в3485100 0.3 100570
06:00+16всв61083100 0.6 1003168
09:00+21вюв7116130 0.6 1003546
12:00+23ю7976100 0.1 1003990
15:00+25ю7955100 0.1 10041338
18:00+22ю796492 0.0 10041113
21:00+16ю6138012 0.0 1006596
18 мая, вт
вт1800:00+15ююз9158768 0.0 1007848
03:00+15ююз71487100 0.0 1006730
06:00+14ю51193100 0.0 1007398
09:00+18ю797092 0.0 1008648
12:00+20ю7961100 0.0 1008926
15:00+22ююз81058100 1.0 10071680
18:00+19ююз71178100 3.4 1007686
21:00+17ююз71285100 4.1 1007498
19 мая, ср
ср1900:00+15ююз51089100 0.2 1007372
03:00+14ююз6119591 2.1 1008430
06:00+14з489216 1.5 1008415
09:00+16з4567100 1.5 1010834
12:00+19зюз675888 0.6 10111658
15:00+19з5753100 1.8 10112001
18:00+17зюз247011 0.3 1012136
21:00+14юз22715 0.3 101310